Location: Unspecified
(0.0000°N, 0.0000°E)
Time: 13:42:22
(UTC+00:00)

Vanguard 2 Rocket - Pass Details

Date: 22 November 2019
Orbit: 554 x 3326 km, 32.9° (Epoch: 08 December)

Event Time Altitude Azimuth Distance (km) Brightness Sun altitude
Rises 10:50:29 0° 269° (W) 6,071 11.0 65.7°
Reaches altitude 10° 10:54:56 10° 258° (WSW) 5,420 10.9 66.3°
Maximum altitude 11:09:21 31° 203° (SSW) 4,641 11.3 68.0°
Drops below altitude 10° 11:26:03 10° 148° (SSE) 6,177 11.6 69.3°
Sets 11:31:45 0° 137° (SE) 6,993 11.7 69.6°
